Lander, WY

9:36 AM MST on January 22, 2018 (GMT -0700)
Hunt

Weather History for KLND - June, 2012

Change the Weather History Date:

Friday, June 8, 2012

  Actual Average Record
Temperature  
Mean Temperature 67 °F 60 °F  
Max Temperature 87 °F 74 °F 88 °F (2001)
Min Temperature 47 °F 46 °F 28 °F (1906)
Degree Days  
Heating Degree Days 0 6  
Month to date heating degree days 11 54  
Since 1 June heating degree days 11 54  
Since 1 July heating degree days 6773 7676  
Cooling Degree Days 2 1  
Month to date cooling degree days 25 8  
Year to date cooling degree days 34 13  
Since 1 June cooling degree days 25 8  
Growing Degree Days 17 (Base 50)    
Moisture  
Dew Point 23 °F    
Average Humidity 26    
Maximum Humidity 42    
Minimum Humidity 10    
Precipitation  
Precipitation 0.00 in 0.05 in 1.00 in (1969)
Month to date precipitation 0.04 0.48  
Year to date precipitation 4.57 6.70  
Snow  
Snow 0.00 in 0.00 in - ()
Month to date snowfall 0.0 0.1  
Since 1 June snowfall 0.0 0.1  
Since 1 July snowfall 63.9 91.4  
Snow Depth 0.00 in    
Sea Level Pressure  
Sea Level Pressure 29.62 in    
Wind  
Wind Speed 11 mph (WSW)    
Max Wind Speed 25 mph    
Max Gust Speed 45 mph    
Visibility 10 miles    
Events      
T = Trace of Precipitation, MM = Missing Value Source: NWS Daily Summary

Daily Weather History Graph

Daily Weather History Graph

Search for Another Location

Airport or City:

Trip Planner

Search our weather history database for the weather conditions in past years. The results will help you decide how hot, cold, wet, or windy it might be!

Date:

Astronomy

Jun. 08, 2012 Rise Set
Actual Time 5:36 AM MDT 8:51 PM MDT
Civil Twilight 5:01 AM MDT 9:26 PM MDT
Nautical Twilight 4:16 AM MDT 10:11 PM MDT
Astronomical Twilight 3:21 AM MDT 11:07 PM MDT
Moon No Moon Rise 10:24 AM MDT (6/8)
Length of Visible Light 16h 25m
Length of Day
15h 15m
Waning Gibbous, 77% of the Moon is Illuminated
Jun 8
Waning Gibbous
Jun 11
Last Quarter
Jun 19
New
Jun 26
First Quarter
Jul 3
Full

Hourly Weather History & Observations

Time (MDT) Temp. Dew Point Humidity Pressure Visibility Wind Dir Wind Speed Gust Speed Precip Events Conditions
12:53 AM 57.9 °F 12.0 °F 16% 29.78 in 10.0 mi North 3.5 mph - N/A   Clear
1:53 AM 57.0 °F 10.9 °F 16% 29.75 in 10.0 mi Variable 3.5 mph - N/A   Clear
2:53 AM 54.0 °F 14.0 °F 21% 29.75 in 10.0 mi NW 10.4 mph - N/A   Clear
3:53 AM 54.0 °F 15.1 °F 22% 29.75 in 10.0 mi WNW 5.8 mph - N/A   Clear
4:53 AM 48.0 °F 18.0 °F 30% 29.76 in 10.0 mi NNE 8.1 mph - N/A   Clear
5:53 AM 53.1 °F 16.0 °F 23% 29.75 in 10.0 mi Calm Calm - N/A   Clear
6:53 AM 52.0 °F 21.0 °F 30% 29.75 in 10.0 mi WNW 6.9 mph - N/A   Clear
7:53 AM 55.0 °F 28.9 °F 37% 29.75 in 10.0 mi Calm Calm - N/A   Clear
8:53 AM 61.0 °F 37.0 °F 41% 29.73 in 10.0 mi Calm Calm - N/A   Clear
9:53 AM 69.1 °F 39.0 °F 33% 29.68 in 10.0 mi NNE 9.2 mph - N/A   Clear
10:23 AM 75.2 °F 24.8 °F 15% 29.85 in 10.0 mi SSE 25.3 mph 31.1 mph N/A   Clear
10:53 AM 79.0 °F 24.1 °F 13% 29.62 in 10.0 mi SSE 24.2 mph 40.3 mph N/A   Clear
11:12 AM 80.6 °F 24.8 °F 13% 29.83 in 10.0 mi South 23.0 mph - N/A   Clear
11:53 AM 82.0 °F 21.0 °F 10% 29.60 in 10.0 mi WSW 17.3 mph 24.2 mph N/A   Clear
12:53 PM 82.0 °F 21.9 °F 11% 29.59 in 10.0 mi SW 11.5 mph 23.0 mph N/A   Clear
1:53 PM 84.0 °F 21.0 °F 10% 29.55 in 10.0 mi WSW 20.7 mph 39.1 mph N/A   Clear
2:53 PM 84.0 °F 25.0 °F 12% 29.53 in 10.0 mi SW 17.3 mph 27.6 mph N/A   Clear
3:53 PM 86.0 °F 23.0 °F 10% 29.49 in 10.0 mi South 24.2 mph 40.3 mph N/A   Clear
4:53 PM 84.9 °F 25.0 °F 11% 29.49 in 10.0 mi WSW 17.3 mph 44.9 mph N/A   Clear
5:53 PM 84.0 °F 23.0 °F 11% 29.46 in 10.0 mi West 18.4 mph 28.8 mph N/A   Clear
6:53 PM 82.0 °F 25.0 °F 12% 29.48 in 10.0 mi West 17.3 mph 24.2 mph N/A   Clear
7:53 PM 78.1 °F 26.1 °F 15% 29.47 in 10.0 mi WSW 16.1 mph 21.9 mph N/A   Clear
8:53 PM 71.1 °F 27.0 °F 19% 29.47 in 10.0 mi WSW 12.7 mph - N/A   Clear
9:53 PM 69.1 °F 26.1 °F 20% 29.45 in 10.0 mi WSW 12.7 mph - N/A   Clear
10:53 PM 64.0 °F 28.9 °F 27% 29.39 in 10.0 mi SE 4.6 mph - N/A   Clear
11:53 PM 64.0 °F 28.0 °F 26% 29.38 in 10.0 mi Calm Calm - N/A   Clear